| time (UTC) | temp C | wind direction | speed KPH | gust KPH | rain 1hr cm | rain 24hr cm | rain mn cm | humidity % | barometer mb |
| 20260906044531 | 21 | 5 | 0.0 | 0.0 | 0.00 | 0.10 | 0.00 | 96 | 1014.8 |
| 20260906043024 | 21 | 5 | 0.0 | 0.0 | 0.00 | 0.10 | 0.00 | 96 | 1015.0 |
| 20260906041526 | 21 | 5 | 0.0 | 0.0 | 0.00 | 0.10 | 0.00 | 96 | 1015.0 |
| 20260906040016 | 21 | 5 | 0.0 | 0.0 | 0.00 | 0.10 | 0.00 | 96 | 1015.3 |
| 20260906034516 | 21 | 5 | 0.0 | 0.0 | 0.00 | 0.10 | 0.10 | 96 | 1015.5 |
| 20260906033036 | 21 | 5 | 0.0 | 0.0 | 0.00 | 0.10 | 0.10 | 96 | 1015.5 |
| 20260906031529 | 21 | 5 | 0.0 | 0.0 | 0.00 | 0.10 | 0.10 | 96 | 1015.3 |
| 20260906030028 | 21 | 5 | 0.0 | 0.0 | 0.00 | 0.10 | 0.10 | 96 | 1015.3 |
| 20260906024509 | 21 | 5 | 0.0 | 0.0 | 0.00 | 0.10 | 0.10 | 96 | 1015.3 |
| 20260906023019 | 21 | 5 | 0.0 | 0.0 | 0.00 | 0.10 | 0.10 | 96 | 1015.2 |
| 20260906021524 | 21 | 5 | 0.0 | 0.0 | 0.00 | 0.10 | 0.10 | 96 | 1015.1 |
| 20260906020031 | 21 | 5 | 0.0 | 0.0 | 0.00 | 0.10 | 0.10 | 96 | 1014.9 |
| 20260906014533 | 21 | 5 | 0.0 | 0.0 | 0.00 | 0.10 | 0.10 | 95 | 1015.0 |
| 20260906013014 | 21 | 5 | 0.0 | 0.0 | 0.00 | 0.10 | 0.10 | 95 | 1015.1 |
| 20260906011523 | 21 | 5 | 0.0 | 0.0 | 0.00 | 0.10 | 0.10 | 95 | 1015.0 |
| 20260906010031 | 22 | 5 | 0.0 | 0.0 | 0.00 | 0.10 | 0.10 | 94 | 1014.9 |
| 20260906004527 | 22 | 5 | 0.0 | 0.0 | 0.00 | 0.10 | 0.10 | 94 | 1014.6 |
| 20260906003029 | 22 | 5 | 0.0 | 0.0 | 0.00 | 0.10 | 0.10 | 94 | 1014.5 |
| 20260906001519 | 22 | 5 | 0.0 | 0.0 | 0.00 | 0.10 | 0.10 | 93 | 1014.2 |
| 20260906000025 | 22 | 5 | 0.0 | 0.0 | 0.00 | 0.10 | 0.10 | 93 | 1014.1 |
| 20260905234529 | 23 | 5 | 0.0 | 0.0 | 0.00 | 0.10 | 0.10 | 92 | 1014.0 |
| 20260905233033 | 23 | 48 | 0.0 | 0.0 | 0.00 | 0.10 | 0.10 | 91 | 1014.1 |
| 20260905231529 | 23 | 48 | 0.0 | 0.0 | 0.00 | 0.10 | 0.10 | 91 | 1014.0 |
| 20260905230018 | 23 | 48 | 0.0 | 0.0 | 0.00 | 0.10 | 0.10 | 92 | 1014.0 |
| 20260905224533 | 23 | 32 | 0.0 | 0.0 | 0.00 | 0.10 | 0.10 | 91 | 1014.0 |
| 20260905223027 | 23 | 32 | 0.0 | 0.0 | 0.00 | 0.10 | 0.10 | 90 | 1014.0 |
| 20260905221534 | 24 | 32 | 0.0 | 0.0 | 0.00 | 0.10 | 0.10 | 89 | 1014.1 |
| 20260905220038 | 24 | 32 | 0.0 | 0.0 | 0.00 | 0.10 | 0.10 | 90 | 1014.0 |
| 20260905214526 | 24 | 32 | 0.0 | 0.0 | 0.00 | 0.10 | 0.10 | 89 | 1014.1 |
| 20260905213028 | 24 | 122 | 0.0 | 0.0 | 0.00 | 0.10 | 0.10 | 92 | 1014.4 |
| 20260905211508 | 24 | 122 | 0.0 | 1.6 | 0.00 | 0.10 | 0.10 | 91 | 1014.5 |
| 20260905210013 | 24 | 122 | 0.0 | 0.0 | 0.00 | 0.10 | 0.10 | 91 | 1014.8 |
| 20260905204520 | 24 | 122 | 0.0 | 0.0 | 0.00 | 0.10 | 0.10 | 91 | 1014.9 |
| 20260905203031 | 24 | 122 | 0.0 | 0.0 | 0.00 | 0.10 | 0.10 | 91 | 1014.8 |
| 20260905201507 | 23 | 16 | 0.0 | 0.0 | 0.00 | 0.10 | 0.10 | 92 | 1015.2 |
| 20260905200010 | 23 | 40 | 0.0 | 0.0 | 0.00 | 0.10 | 0.10 | 92 | 1015.2 |
| 20260905194517 | 23 | 67 | 0.0 | 3.2 | 0.00 | 0.10 | 0.10 | 92 | 1015.6 |
| 20260905193026 | 23 | 45 | 0.0 | 3.2 | 0.00 | 0.10 | 0.10 | 90 | 1015.8 |
| 20260905191528 | 23 | 94 | 0.0 | 12.9 | 0.03 | 0.10 | 0.10 | 87 | 1015.5 |
| 20260905190009 | 24 | 213 | 0.0 | 8.0 | 0.08 | 0.10 | 0.10 | 90 | 1016.2 |
| 20260905184515 | 23 | 210 | 1.6 | 6.4 | 0.10 | 0.10 | 0.10 | 94 | 1016.4 |
| 20260905183018 | 24 | 184 | 0.0 | 3.2 | 0.10 | 0.10 | 0.10 | 90 | 1015.8 |
| 20260905181528 | 25 | 232 | 1.6 | 14.5 | 0.08 | 0.08 | 0.08 | 85 | 1016.0 |
| 20260905180007 | 28 | 242 | 1.6 | 8.0 | 0.03 | 0.03 | 0.03 | 83 | 1015.7 |
| 20260905174512 | 30 | 42 | 1.6 | 4.8 | 0.00 | 0.00 | 0.00 | 79 | 1015.2 |
| 20260905173026 | 30 | 187 | 1.6 | 4.8 | 0.00 | 0.00 | 0.00 | 75 | 1015.5 |
| 20260905171535 | 31 | 153 | 1.6 | 4.8 | 0.00 | 0.00 | 0.00 | 71 | 1015.6 |
| 20260905170030 | 31 | 155 | 1.6 | 9.7 | 0.00 | 0.00 | 0.00 | 67 | 1015.6 |
| 20260905164510 | 31 | 191 | 4.8 | 11.3 | 0.00 | 0.00 | 0.00 | 66 | 1015.9 |
| 20260905163016 | 30 | 163 | 1.6 | 8.0 | 0.00 | 0.00 | 0.00 | 76 | 1016.2 |
| 20260905161525 | 30 | 163 | 3.2 | 8.0 | 0.00 | 0.00 | 0.00 | 79 | 1016.4 |
| 20260905160046 | 30 | 166 | 1.6 | 6.4 | 0.00 | 0.00 | 0.00 | 80 | 1016.4 |
| 20260905154531 | 30 | 159 | 0.0 | 3.2 | 0.00 | 0.00 | 0.00 | 80 | 1016.4 |
| 20260905153019 | 30 | 159 | 0.0 | 3.2 | 0.00 | 0.00 | 0.00 | 82 | 1016.5 |
| 20260905151520 | 29 | 161 | 0.0 | 3.2 | 0.00 | 0.00 | 0.00 | 83 | 1016.5 |
| 20260905150025 | 28 | 156 | 0.0 | 3.2 | 0.00 | 0.00 | 0.00 | 81 | 1016.5 |
| 20260905144529 | 28 | 26 | 0.0 | 4.8 | 0.00 | 0.00 | 0.00 | 86 | 1016.6 |
| 20260905143032 | 27 | 178 | 0.0 | 3.2 | 0.00 | 0.00 | 0.00 | 87 | 1016.6 |
| 20260905141515 | 26 | 98 | 0.0 | 3.2 | 0.00 | 0.00 | 0.00 | 88 | 1016.8 |
| 20260905140024 | 25 | 154 | 0.0 | 3.2 | 0.00 | 0.00 | 0.00 | 92 | 1016.8 |
| 20260905134530 | 23 | 133 | 0.0 | 3.2 | 0.00 | 0.00 | 0.00 | 94 | 1016.9 |
| 20260905133031 | 23 | 76 | 0.0 | 3.2 | 0.00 | 0.00 | 0.00 | 95 | 1016.9 |
| 20260905131529 | 22 | 32 | 0.0 | 3.2 | 0.00 | 0.00 | 0.00 | 96 | 1017.1 |
| 20260905130018 | 22 | 352 | 0.0 | 0.0 | 0.00 | 0.00 | 0.00 | 98 | 1017.1 |
| 20260905124536 | 21 | 352 | 0.0 | 0.0 | 0.00 | 0.00 | 0.00 | 98 | 1017.0 |
| 20260905123027 | 21 | 352 | 0.0 | 0.0 | 0.00 | 0.00 | 0.00 | 98 | 1016.9 |
| 20260905121512 | 21 | 352 | 0.0 | 0.0 | 0.00 | 0.00 | 0.00 | 97 | 1016.9 |
| 20260905120014 | 21 | 352 | 0.0 | 0.0 | 0.00 | 0.00 | 0.00 | 97 | 1016.9 |
| 20260905114526 | 21 | 352 | 0.0 | 0.0 | 0.00 | 0.00 | 0.00 | 97 | 1016.7 |
| 20260905113004 | 21 | 352 | 0.0 | 0.0 | 0.00 | 0.00 | 0.00 | 97 | 1016.6 |
| 20260905111508 | 21 | 352 | 0.0 | 0.0 | 0.00 | 0.00 | 0.00 | 97 | 1016.2 |
| 20260905110015 | 21 | 352 | 0.0 | 0.0 | 0.00 | 0.00 | 0.00 | 97 | 1016.0 |
| 20260905104519 | 21 | 352 | 0.0 | 0.0 | 0.00 | 0.00 | 0.00 | 97 | 1016.0 |
| 20260905103027 | 21 | 352 | 0.0 | 0.0 | 0.00 | 0.00 | 0.00 | 97 | 1015.9 |
| 20260905101507 | 21 | 352 | 0.0 | 0.0 | 0.00 | 0.00 | 0.00 | 97 | 1015.8 |
| 20260905100010 | 21 | 352 | 0.0 | 0.0 | 0.00 | 0.00 | 0.00 | 97 | 1015.8 |
| 20260905094518 | 21 | 352 | 0.0 | 0.0 | 0.00 | 0.00 | 0.00 | 96 | 1015.8 |
| 20260905093025 | 21 | 352 | 0.0 | 0.0 | 0.00 | 0.00 | 0.00 | 96 | 1015.7 |
| 20260905091559 | 21 | 352 | 0.0 | 0.0 | 0.00 | 0.00 | 0.00 | 96 | 1015.6 |
| 20260905090010 | 21 | 352 | 0.0 | 0.0 | 0.00 | 0.00 | 0.00 | 96 | 1015.6 |
| 20260905084513 | 21 | 352 | 0.0 | 0.0 | 0.00 | 0.00 | 0.00 | 96 | 1015.7 |
| 20260905083018 | 21 | 352 | 0.0 | 0.0 | 0.00 | 0.00 | 0.00 | 96 | 1015.9 |
| 20260905081524 | 21 | 352 | 0.0 | 0.0 | 0.00 | 0.00 | 0.00 | 96 | 1016.1 |
| 20260905080037 | 21 | 352 | 0.0 | 0.0 | 0.00 | 0.00 | 0.00 | 96 | 1016.2 |
| 20260905074514 | 21 | 352 | 0.0 | 0.0 | 0.00 | 0.00 | 0.00 | 95 | 1016.2 |
| 20260905073016 | 21 | 352 | 0.0 | 0.0 | 0.00 | 0.00 | 0.00 | 95 | 1016.4 |
| 20260905071526 | 21 | 352 | 0.0 | 0.0 | 0.00 | 0.00 | 0.00 | 95 | 1016.7 |
| 20260905070029 | 21 | 352 | 0.0 | 0.0 | 0.00 | 0.00 | 0.00 | 95 | 1016.7 |
| 20260905064532 | 21 | 352 | 0.0 | 0.0 | 0.00 | 0.00 | 0.00 | 95 | 1016.8 |
| 20260905063015 | 22 | 352 | 0.0 | 0.0 | 0.00 | 0.00 | 0.00 | 95 | 1017.0 |
| 20260905061520 | 21 | 352 | 0.0 | 0.0 | 0.00 | 0.00 | 0.00 | 95 | 1017.0 |
| 20260905060029 | 22 | 352 | 0.0 | 0.0 | 0.00 | 0.00 | 0.00 | 95 | 1017.2 |
| 20260905054531 | 22 | 352 | 0.0 | 0.0 | 0.00 | 0.00 | 0.00 | 95 | 1017.4 |
| 20260905053012 | 22 | 352 | 0.0 | 0.0 | 0.00 | 0.00 | 0.00 | 95 | 1017.5 |
| 20260905051517 | 22 | 352 | 0.0 | 0.0 | 0.00 | 0.00 | 0.00 | 95 | 1017.5 |
| 20260905050002 | 22 | 352 | 0.0 | 0.0 | 0.00 | 0.00 | 0.00 | 95 | 1017.5 |